Home > Weather > Mechelen > Past weeks

Flag for Belgium Past Weather in Mechelen, Belgium — Yesterday and Last 2 Weeks

Now
54 °F

Fog.


Feels Like: 54 °F
Forecast: 59 / 71 °F
Wind: 2 mph from North

Location: Brussels National Airport

Current Time: May 28, 2016 at 6:02:09 AM

Latest Report: May 28, 2016 at 5:20 AM


Visibility: 2 mi

Pressure: 29.98 "Hg

Humidity: 94%

Dew Point: 52 °F

Location of MechelenLocation

Past Weather in Mechelen — Graph

°F

Mechelen Temperature Yesterday

Maximum temperature yesterday: 73 °F (at 3:50 PM)
Minimum temperature yesterday: 55 °F (at 2:50 AM)
Average temperature yesterday: 63 °F

High & Low Weather Summary for the Past Weeks

 TemperatureHumidityPressure
High73 °F (May 13, 1:50 PM)100% (May 19, 4:50 AM)30.18 "Hg (May 19, 4:50 AM)
Low41 °F (May 25, 5:20 AM)35% (May 13, 7:50 PM)29.56 "Hg (May 13, 4:20 AM)
Average56 °F74%29.96 "Hg
* Reported May 13 4:20 AM — May 28 4:50 AM, Mechelen, Weather by CustomWeather, © 2016

Note: Actual official high and low records may vary slightly from our data, if they occured in-between our weather recording intervals... More about our weather records

Advertising

Mechelen Weather History for the Previous 24 Hours

Scroll right to see more
 ConditionsComfort  
Time TempWeatherWind HumidityBarometerVisibility
4:50 AM
Sat, May 28
54 °FFog.2 mph94%29.98 "Hg2 mi
4:20 AM55 °FFog.1 mph100%29.98 "Hg2 mi
3:50 AM55 °FFog.1 mph94%29.98 "Hg2 mi
3:20 AM57 °FFog.2 mph94%29.98 "Hg2 mi
2:50 AM57 °FFog.2 mph94%29.98 "Hg2 mi
2:20 AM57 °FFog.No wind94%29.98 "Hg3 mi
1:50 AM59 °FFog.1 mph94%29.98 "Hg3 mi
1:20 AM57 °FFog.No wind94%29.98 "Hg3 mi
12:50 AM59 °FPassing clouds.3 mph94%29.98 "Hg4 mi
12:20 AM59 °FPassing clouds.2 mph100%29.98 "Hg4 mi
11:50 PM
Fri, May 27
61 °FPassing clouds.6 mph94%29.98 "Hg4 mi
11:20 PM59 °FPassing clouds.8 mph100%29.95 "HgN/A
10:50 PM61 °FLight rain. Passing clouds.2 mph88%30.01 "HgN/A
10:20 PM61 °FLight rain. Passing clouds.5 mph94%29.98 "HgN/A
9:50 PM61 °FRain. Partly sunny.7 mph88%29.98 "Hg4 mi
9:20 PM63 °FRain. Partly sunny.7 mph88%29.98 "Hg4 mi
8:50 PM64 °FLight rain. Partly sunny.3 mph83%29.98 "Hg5 mi
8:20 PM66 °FLight rain. Scattered clouds.6 mph73%29.98 "Hg6 mi
7:50 PM68 °FPassing clouds.5 mph69%29.98 "HgN/A
7:20 PM68 °FPassing clouds.6 mph69%29.95 "HgN/A
6:50 PM70 °FPassing clouds.6 mph60%29.95 "HgN/A
6:20 PM72 °FScattered clouds.9 mph61%29.95 "HgN/A
5:50 PM72 °FScattered clouds.12 mph57%29.95 "HgN/A
5:20 PM72 °FScattered clouds.12 mph57%29.95 "HgN/A
4:50 PM72 °FScattered clouds.7 mph57%29.95 "HgN/A
4:20 PM73 °FScattered clouds.5 mph57%29.98 "HgN/A
3:50 PM73 °FScattered clouds.6 mph53%29.98 "HgN/A
3:20 PM72 °FScattered clouds.5 mph61%29.98 "HgN/A
2:50 PM70 °FScattered clouds.6 mph64%29.98 "HgN/A
2:20 PM70 °FScattered clouds.6 mph64%29.98 "HgN/A
1:50 PM70 °FScattered clouds.5 mph69%29.98 "HgN/A
1:20 PM68 °FPassing clouds.3 mph69%29.98 "HgN/A
12:50 PM68 °FPassing clouds.6 mph69%29.98 "HgN/A
12:20 PM68 °FPassing clouds.5 mph69%29.98 "HgN/A
11:50 AM66 °FPassing clouds.5 mph73%29.98 "Hg4 mi
11:20 AM64 °FClear.5 mph78%29.98 "Hg4 mi
10:50 AM63 °FClear.3 mph77%29.98 "Hg4 mi
10:20 AM61 °FClear.5 mph83%29.98 "Hg4 mi
9:50 AM61 °FClear.2 mph83%29.98 "Hg4 mi
9:20 AM59 °FClear.5 mph82%29.98 "Hg4 mi
8:50 AM59 °FClear.7 mph82%29.98 "Hg4 mi
8:20 AM57 °FClear.5 mph88%29.98 "Hg4 mi
7:50 AM57 °FClear.5 mph88%29.98 "Hg4 mi
7:20 AM55 °FFog.3 mph88%29.98 "Hg3 mi
6:50 AM55 °FFog.5 mph88%29.98 "Hg3 mi
6:20 AM55 °FFog.5 mph88%29.95 "Hg3 mi
Weather by CustomWeather, © 2016

See weather overviewHow to use our weather pages